White Plains, CT

2:07 AM EDT on September 20, 2017 (GMT -0400)
Westchester County

Weather History for KHPN - November, 2012

Change the Weather History Date:

Sunday, November 18, 2012

  Actual Average Record
Temperature  
Mean Temperature 40 °F -  
Max Temperature 48 °F 48 °F 66 °F (1987)
Min Temperature 32 °F 34 °F 21 °F (2014)
Degree Days  
Heating Degree Days 25    
Moisture  
Dew Point 30 °F    
Average Humidity 66    
Maximum Humidity 75    
Minimum Humidity 52    
Precipitation  
Precipitation 0.00 in - - ()
Sea Level Pressure  
Sea Level Pressure 30.63 in    
Wind  
Wind Speed 5 mph (NE)    
Max Wind Speed 9 mph    
Max Gust Speed -    
Visibility 10 miles    
Events      
Averages and records for this station are not official NWS values.
T = Trace of Precipitation, MM = Missing Value Source: NWS Daily Summary

Daily Weather History Graph

Daily Weather History Graph

Search for Another Location

Airport or City:

Trip Planner

Search our weather history database for the weather conditions in past years. The results will help you decide how hot, cold, wet, or windy it might be!

Date:

Astronomy

Nov. 18, 2012 Rise Set
Actual Time 6:46 AM EST 4:33 PM EST
Civil Twilight 6:16 AM EST 5:03 PM EST
Nautical Twilight 5:43 AM EST 5:36 PM EST
Astronomical Twilight 5:10 AM EST 6:09 PM EST
Moon 11:11 AM EST (11/18) 9:50 PM EST (11/18)
Length of Visible Light 10h 46m
Length of Day
9h 46m
Waxing Crescent, 30% of the Moon is Illuminated
Nov 18
Waxing Crescent
Nov 20
First Quarter
Nov 28
Full
Dec 6
Last Quarter
Dec 13
New

Hourly Weather History & Observations

Time (EST) Temp. Windchill Dew Point Humidity Pressure Visibility Wind Dir Wind Speed Gust Speed Precip Events Conditions
12:56 AM 35.1 °F 30.1 °F 26.1 °F 70% 30.63 in 10.0 mi North 5.8 mph - N/A   Clear
1:56 AM 36.0 °F 31.1 °F 26.1 °F 67% 30.63 in 10.0 mi North 5.8 mph - N/A   Clear
2:56 AM 36.0 °F 32.1 °F 25.0 °F 64% 30.63 in 10.0 mi North 4.6 mph - N/A   Clear
3:56 AM 34.0 °F - 25.0 °F 70% 30.64 in 10.0 mi Calm Calm - N/A   Clear
4:56 AM 32.0 °F 28.7 °F 25.0 °F 75% 30.65 in 10.0 mi NNW 3.5 mph - N/A   Clear
5:56 AM 34.0 °F 28.8 °F 27.0 °F 75% 30.66 in 10.0 mi NNE 5.8 mph - N/A   Clear
6:56 AM 34.0 °F 28.8 °F 27.0 °F 75% 30.67 in 10.0 mi North 5.8 mph - N/A   Clear
7:56 AM 37.9 °F 33.5 °F 28.0 °F 68% 30.67 in 10.0 mi NE 5.8 mph - N/A   Clear
8:56 AM 41.0 °F 38.0 °F 28.9 °F 62% 30.68 in 10.0 mi NE 4.6 mph - N/A   Clear
9:56 AM 44.1 °F 39.0 °F 30.9 °F 60% 30.68 in 10.0 mi East 9.2 mph - N/A   Clear
10:56 AM 46.0 °F 41.4 °F 30.9 °F 56% 30.67 in 10.0 mi East 9.2 mph - N/A   Clear
11:56 AM 46.9 °F - 30.9 °F 54% 30.65 in 10.0 mi East 6.9 mph - N/A   Clear
12:56 PM 48.0 °F - 30.9 °F 52% 30.62 in 10.0 mi East 4.6 mph - N/A   Clear
1:56 PM 46.9 °F - 32.0 °F 56% 30.62 in 10.0 mi SE 6.9 mph - N/A   Clear
2:56 PM 45.0 °F 40.6 °F 34.0 °F 65% 30.62 in 10.0 mi SSE 8.1 mph - N/A   Clear
3:56 PM 45.0 °F 42.6 °F 33.1 °F 63% 30.62 in 10.0 mi ESE 4.6 mph - N/A   Clear
4:56 PM 43.0 °F - 33.1 °F 68% 30.61 in 10.0 mi Calm Calm - N/A   Clear
5:56 PM 39.9 °F - 32.0 °F 73% 30.62 in 10.0 mi Calm Calm - N/A   Clear
6:56 PM 41.0 °F - 32.0 °F 70% 30.62 in 10.0 mi Calm Calm - N/A   Clear
7:56 PM 41.0 °F 39.0 °F 33.1 °F 73% 30.61 in 10.0 mi North 3.5 mph - N/A   Clear
8:56 PM 41.0 °F 39.0 °F 30.9 °F 67% 30.61 in 10.0 mi NNE 3.5 mph - N/A   Clear
9:56 PM 39.9 °F 36.7 °F 28.9 °F 65% 30.60 in 10.0 mi NE 4.6 mph - N/A   Clear
10:56 PM 39.0 °F 34.8 °F 28.9 °F 67% 30.59 in 10.0 mi NE 5.8 mph - N/A   Clear
11:56 PM 37.9 °F 31.5 °F 28.9 °F 70% 30.57 in 10.0 mi NE 9.2 mph - N/A   Clear